RH
43 45 46 44 38 38 26 24 20 16 14 20 25 23 26 41 45 43 42 36 39 37 38 39 37 36 35 31 21 19 22 24 25 26 28 27 25 22 20 20 21 19 14 10 9 8 8 8 8
62 50 48 44 44 44 29 26 32 31 23 24 25 23 23 39 46 43 44 38 36 36 38 39 38 38 38 38 36 27 19 20 23 26 28 28 27 26 24 20 18 18 20 21 19 16 13 11 10
75 66 49 51 48 46 33 34 37 34 32 28 24 23 23 35 43 41 40 38 37 35 36 39 38 38 38 38 38 37 35 21 19 21 21 23 25 26 27 26 24 22 20 18 16 16 17 19 21
80 76 57 59 48 39 41 34 38 35 33 31 30 25 23 31 38 43 39 34 37 35 32 36 38 38 38 38 38 38 38 37 30 21 19 22 24 26 28 28 28 27 26 25 23 22 21 20 19
81 71 59 62 47 37 41 44 42 37 36 33 30 27 23 25 35 44 44 36 33 33 32 32 37 38 38 38 38 38 39 39 39 37 31 27 23 22 23 24 28 33 33 34 34 34 34 34 31
78 78 66 58 46 36 39 48 50 39 37 35 32 29 26 23 26 41 44 42 39 30 31 30 35 38 39 38 39 39 39 40 40 41 40 38 34 35 31 27 26 26 27 28 27 29 30 33 36
81 75 68 57 43 39 39 46 48 39 36 34 32 30 25 22 24 30 41 42 38 37 28 30 34 37 39 39 39 40 40 41 41 41 42 43 42 39 37 40 42 41 32 27 28 34 35 35 35
97 80 71 68 50 44 42 49 55 43 42 38 34 42 27 23 24 29 33 38 41 38 32 30 33 36 38 40 40 40 41 42 42 42 43 44 44 44 45 44 45 45 46 46 44 34 34 38 39
96 87 79 73 63 47 45 50 66 47 45 42 38 40 44 37 31 28 26 29 39 41 38 30 32 35 36 39 40 41 41 42 43 43 44 45 45 45 45 44 45 44 44 44 45 46 46 42 39
100 97 79 80 71 53 54 60 66 47 42 41 44 40 46 46 43 40 30 36 41 43 44 39 29 32 35 37 38 39 41 42 42 42 44 44 45 46 46 46 45 45 45 45 45 45 45 45 45
90 95 85 88 84 65 56 68 68 59 43 44 52 37 40 49 43 40 46 48 54 50 47 40 33 32 31 31 33 36 37 38 39 40 41 42 44 45 46 47 48 49 49 49 48 48 47 47 47
76 92 91 100 96 83 74 73 69 65 46 53 58 54 42 48 53 45 48 44 43 43 42 44 45 44 40 38 36 34 34 34 35 38 39 42 43 44 45 46 47 48 48 49 50 50 50 51 50
90 88 96 100 97 96 88 85 98 64 50 47 51 60 49 49 64 63 58 55 42 38 35 33 31 32 34 34 35 36 38 42 44 42 40 40 41 42 43 45 46 47 48 49 49 50 50 50 51
100 98 92 84 97 94 98 100 99 71 57 48 48 42 41 42 55 60 60 58 46 42 38 35 34 33 30 30 30 27 27 29 33 35 41 48 49 49 51 52 55 56 57 57 56 56 56 55 54
98 91 92 83 94 96 98 99 97 79 79 82 68 55 40 37 38 42 42 48 47 46 40 35 33 31 30 31 32 32 32 31 27 30 32 34 37 45 48 48 47 48 49 47 45 44 47 53 60
94 99 99 95 90 97 99 76 76 90 78 89 83 69 43 39 34 36 37 38 46 42 40 39 36 35 34 34 34 36 35 36 34 31 32 30 31 34 38 41 41 40 38 37 36 37 37 37 39
92 91 90 79 67 68 96 84 87 96 84 72 70 60 47 38 38 37 37 38 36 38 41 41 40 37 38 39 38 38 40 40 39 37 36 37 35 34 32 34 36 39 39 40 42 45 47 44 42
96 98 87 81 64 60 79 77 78 86 85 73 63 58 56 46 43 44 42 38 36 35 30 29 30 29 30 31 33 35 34 37 38 40 41 42 40 38 40 40 41 42 44 45 49 50 50 48 46
86 80 80 90 82 77 89 79 81 80 81 70 58 56 50 46 44 48 47 44 40 35 30 26 27 31 34 34 29 29 33 41 42 42 41 42 41 41 43 45 49 46 44 52 54 59 57 57 55
76 67 81 82 84 80 79 73 66 72 61 54 48 46 49 48 40 38 38 38 36 34 31 29 28 27 26 24 23 25 29 34 38 40 43 41 37 36 35 39 42 48 54 46 42 39 38 36 40
84 83 80 78 78 84 82 77 62 40 51 48 47 40 37 40 38 31 36 36 36 34 32 32 31 28 24 22 22 22 20 20 21 22 23 21 17 15 15 18 30 33 25 23 24 25 24 24 31
84 71 80 80 80 77 72 79 49 38 38 44 45 44 41 41 39 37 36 37 36 36 36 32 29 26 25 23 21 19 18 16 16 14 14 14 15 16 17 18 19 20 22 23 26 28 28 33 38
90 93 88 84 79 78 77 75 60 50 38 28 37 45 48 49 48 46 44 35 34 34 31 27 23 19 17 16 15 14 14 14 13 13 13 14 16 19 24 26 25 25 28 30 41 49 37 36 32
85 94 92 91 84 88 75 75 66 46 34 32 28 33 50 51 50 46 43 41 36 34 32 27 22 17 16 13 13 13 14 14 14 15 15 18 19 20 19 17 18 19 20 22 23 24 24 28 42
88 87 98 98 98 93 68 70 63 41 41 37 30 30 33 40 45 46 43 40 36 32 29 22 18 15 14 14 16 17 18 21 22 22 23 22 21 19 17 16 16 17 21 25 29 32 35 36 37
90 91 84 89 96 83 67 70 55 41 39 38 34 27 28 30 32 36 38 38 38 34 26 20 20 22 24 25 25 25 26 25 25 24 23 21 20 18 16 17 20 24 28 31 35 37 40 41 41
96 94 89 82 75 84 66 59 48 45 36 34 26 32 31 28 36 36 40 45 45 37 30 30 30 29 28 27 26 25 24 22 20 19 20 20 22 25 28 31 34 36 40 43 45 46 44 42 40
90 89 98 99 95 87 65 59 42 34 35 32 34 26 29 38 42 47 48 45 40 39 37 35 33 30 28 26 24 25 26 26 25 24 24 26 31 34 37 39 41 43 43 43 42 36 26 20 19
100 100 92 95 81 80 74 50 38 36 41 38 35 31 33 41 46 47 44 44 40 39 37 35 33 31 28 26 25 24 22 22 24 29 31 31 26 23 23 24 29 30 23 14 15 19 18 18 23
100 100 99 96 91 74 67 54 41 38 32 40 41 44 47 54 51 47 41 39 38 38 38 37 36 34 32 29 26 25 25 32 37 35 26 22 19 14 13 12 11 11 18 24 24 24 26 30 36
Wind_Speed
20 22 20 19 14 11 19 12 16 23 24 22 16 14 13 18 24 17 15 18 13 15 12 12 13 13 15 16 14 11 8 8 8 7 8 8 9 10 11 10 10 10 10 10 9 8 7 6 6
22 20 19 20 14 15 18 15 17 15 18 20 19 15 13 18 25 17 18 19 18 16 12 12 14 12 12 13 16 18 14 11 10 9 8 9 10 10 12 12 11 11 10 10 9 9 9 9 9
32 26 21 14 21 19 11 18 15 18 17 18 20 18 15 17 21 19 21 21 16 18 15 14 15 12 10 10 12 15 18 16 12 11 10 11 11 12 12 13 12 12 11 11 12 11 10 10 10
36 34 27 19 20 26 11 18 14 17 18 16 17 19 18 19 18 20 23 23 17 19 19 17 16 13 9 8 8 11 12 15 18 15 13 13 13 13 13 13 13 13 13 14 14 13 13 14 13
34 37 36 25 28 32 16 9 14 18 16 16 17 20 19 19 18 20 22 22 21 21 20 19 18 15 11 8 6 7 8 10 13 17 18 17 16 15 14 13 13 13 13 14 13 13 14 15 15
35 36 36 34 33 33 24 13 9 19 16 17 18 20 23 23 20 19 19 19 20 21 21 21 19 17 14 10 8 5 5 7 9 12 15 17 17 16 15 15 15 14 14 13 12 13 13 12 12
41 42 42 41 35 33 31 17 13 17 15 17 18 19 23 26 24 22 20 18 18 23 24 23 21 20 17 14 10 7 5 6 4 7 8 12 13 15 16 15 15 16 15 13 12 13 13 13 12
43 38 44 34 47 37 31 21 13 15 15 16 20 18 23 24 24 24 23 22 20 22 25 25 23 21 19 17 13 10 8 7 3 2 2 2 4 8 11 12 10 10 12 14 16 14 13 12 12
40 36 39 44 39 45 31 26 11 15 14 19 18 18 19 20 23 23 24 24 23 22 24 26 27 24 20 18 16 13 11 9 7 5 4 4 2 2 2 3 5 4 4 6 9 11 13 13 12
40 41 44 40 36 52 33 22 14 14 18 16 18 18 19 17 21 21 22 20 22 21 21 24 26 24 20 19 18 16 14 13 12 11 10 9 8 8 8 8 9 10 9 8 7 7 7 7 10
37 45 49 37 36 39 47 27 16 12 19 16 15 17 18 18 20 19 20 15 16 17 17 18 21 21 20 19 19 18 17 16 16 15 15 14 13 13 13 14 14 13 13 12 12 12 13 13 13
33 34 37 30 32 41 56 36 22 15 20 19 17 17 19 18 20 20 20 17 15 13 13 13 12 13 14 15 14 15 15 15 16 17 17 16 16 16 17 18 17 16 16 15 15 16 16 17 17
31 32 36 32 36 37 51 47 28 17 19 20 17 18 18 17 18 19 20 19 17 14 12 11 11 11 12 12 12 12 12 13 15 15 16 16 16 17 18 19 19 18 18 18 18 18 19 19 20
21 12 25 32 31 21 38 38 39 17 20 19 19 18 18 19 17 18 19 20 18 16 14 13 12 12 11 11 10 10 11 13 14 15 16 16 17 17 17 17 18 18 18 18 18 19 19 20 21
10 15 18 16 21 16 13 23 31 16 13 13 19 20 22 20 18 16 15 16 18 18 16 15 15 15 15 14 14 14 14 13 13 14 15 16 17 17 18 18 18 19 19 19 19 20 21 21 21
17 21 20 23 22 26 17 27 24 26 11 15 15 16 21 21 20 20 19 19 20 20 19 20 20 20 19 19 19 19 19 19 17 17 17 17 18 19 19 18 18 20 21 22 23 24 24 25 26
21 23 26 16 26 23 28 21 27 18 20 18 23 21 19 23 25 24 23 22 22 22 24 24 24 25 24 23 23 23 23 22 23 23 22 22 22 22 22 22 23 24 25 25 26 26 26 27 27
27 16 30 22 25 31 34 25 18 17 27 23 25 25 25 25 24 25 25 26 25 24 24 25 27 29 29 27 27 28 28 27 26 25 24 25 26 26 27 27 27 28 29 28 29 30 31 31 29
27 22 21 23 17 32 31 26 25 19 29 33 32 25 27 29 31 31 29 28 28 28 28 28 28 28 28 29 28 28 27 27 28 28 28 28 28 28 29 30 30 32 34 33 32 33 33 32 32
21 26 18 26 14 23 26 28 29 31 32 32 33 34 38 36 33 33 33 32 32 30 30 30 31 30 29 29 30 31 30 30 30 30 31 31 32 33 34 35 36 37 38 38 38 39 39 39 36
15 17 26 16 24 17 17 25 31 35 37 43 37 33 32 35 39 37 34 33 32 31 32 32 32 31 32 33 33 34 33 33 33 33 33 35 37 38 39 38 39 41 43 43 41 40 40 39 37
17 15 15 15 11 11 14 8 25 33 40 41 44 41 31 28 28 28 29 31 32 33 32 31 31 32 33 34 36 36 36 36 35 36 36 35 36 37 39 39 40 40 41 41 39 38 37 37 37
15 12 11 13 11 14 14 9 25 25 28 43 43 46 45 43 39 34 31 31 31 32 33 33 33 34 34 35 36 36 36 35 34 35 34 35 36 36 36 37 37 36 37 36 36 36 37 38 39
20 11 9 9 9 6 21 17 22 28 30 28 34 40 43 44 43 41 38 36 35 36 36 36 36 35 35 35 34 34 34 34 34 34 34 35 35 34 32 31 30 29 29 30 32 32 32 32 32
24 15 4 3 4 5 7 18 36 8 16 18 22 29 35 43 44 41 36 35 35 36 35 35 34 34 33 32 31 31 31 31 31 32 32 32 32 32 31 31 30 30 29 29 30 31 31 31 31
26 21 5 5 4 4 14 16 19 21 22 29 23 27 33 35 38 39 37 35 35 36 35 33 31 28 27 27 28 28 28 29 30 31 31 32 33 33 34 33 33 33 32 33 33 34 35 35 35
27 27 17 1 2 2 9 22 35 32 34 28 22 26 27 26 25 28 30 31 31 30 28 27 26 26 26 25 26 28 29 30 30 31 32 33 34 35 36 36 36 35 34 35 35 35 35 36 35
19 29 16 10 1 4 8 16 21 21 21 21 28 26 23 22 22 24 25 26 25 25 25 25 25 26 26 26 27 27 28 29 30 31 33 34 35 35 35 35 35 34 33 32 32 32 31 31 31
28 22 19 14 17 5 2 8 7 11 15 18 16 21 23 18 17 18 21 22 22 22 22 23 24 25 25 26 27 28 29 30 31 32 33 32 31 29 28 27 26 26 25 24 24 26 26 27 29
21 29 25 15 8 14 5 14 12 18 16 14 17 15 18 16 16 17 18 18 19 20 22 23 25 26 27 28 29 30 30 30 30 30 29 27 25 24 24 23 22 21 21 22 22 23 23 25 27
Wind_Direction
205 198 196 193 199 214 213 212 204 207 211 222 226 197 202 191 192 184 177 172 167 152 143 136 124 104 86 74 68 69 72 73 74 71 66 68 63 59 60 62 60 55 55 57 60 60 57 47 40
215 213 196 199 207 209 213 198 175 179 201 218 215 210 201 189 185 193 182 176 167 161 161 152 142 120 100 77 67 59 62 67 74 72 71 67 65 61 61 63 59 54 50 48 47 45 43 42 42
230 227 203 204 213 209 213 192 178 177 180 199 215 209 201 171 184 186 181 180 170 170 171 170 160 142 119 90 70 60 57 59 67 70 70 71 69 66 66 66 64 61 58 55 51 46 43 42 43
216 227 223 211 210 207 177 196 193 177 179 198 214 222 207 186 167 169 178 182 182 180 178 179 174 162 145 119 86 75 55 52 56 61 66 70 71 69 67 66 67 63 58 55 54 51 51 50 48
206 212 219 221 209 210 187 156 184 183 182 207 221 227 217 206 183 167 180 187 188 187 186 186 183 179 170 155 127 100 75 56 47 51 54 57 56 57 58 58 59 57 55 54 53 52 52 50 48
201 206 208 220 211 210 197 205 221 187 196 208 222 226 225 217 207 179 175 189 193 196 196 191 192 191 189 179 166 143 119 94 68 49 32 40 47 48 48 47 48 47 48 49 47 47 46 45 41
201 202 210 219 216 208 209 218 204 196 196 222 224 223 219 214 212 203 195 192 194 197 200 198 198 199 200 194 191 183 164 139 88 67 57 29 30 33 35 35 36 36 36 33 35 37 35 35 33
201 208 211 218 218 218 213 204 209 208 185 203 217 215 214 207 207 207 206 205 201 199 200 201 204 206 207 206 207 206 204 192 183 96 81 80 41 30 22 23 21 19 18 21 26 23 17 12 12
203 205 209 218 212 219 209 208 216 208 189 191 208 212 212 206 209 208 213 207 207 205 204 206 207 211 213 215 220 225 230 225 219 224 236 257 275 311 325 322 326 314 341 5 6 10 13 6 1
210 206 212 217 213 211 211 216 205 192 186 183 206 207 210 205 208 205 206 202 205 205 207 209 210 213 215 219 226 231 232 236 239 243 247 254 261 273 279 280 282 286 289 295 301 302 304 322 344
215 223 219 211 218 211 212 220 209 184 168 173 221 217 208 205 202 196 193 183 178 186 193 202 211 215 218 224 229 234 237 242 250 254 256 260 264 267 270 272 274 280 283 287 287 289 291 295 299
209 220 219 206 218 215 209 219 202 193 170 170 186 212 212 208 205 201 194 186 179 182 186 188 194 202 210 220 227 232 237 241 249 253 258 260 264 266 268 270 273 276 279 281 282 284 287 289 290
208 220 221 213 208 209 213 215 217 185 166 178 184 204 202 202 204 206 200 196 195 192 197 198 203 209 215 220 229 235 239 244 247 253 257 260 263 265 268 273 276 278 280 281 282 286 288 289 289
204 196 219 235 238 240 220 227 223 166 165 168 193 201 200 210 207 205 206 208 209 210 210 212 213 212 216 221 232 241 246 251 254 257 259 262 266 268 270 273 274 276 278 279 282 285 287 288 290
200 199 217 215 217 228 223 236 225 169 150 141 206 212 207 206 212 215 216 221 218 216 219 221 222 226 230 236 245 254 259 265 264 261 264 266 266 267 268 269 273 274 279 284 287 288 288 288 287
198 193 193 209 215 217 235 252 245 173 180 159 197 193 208 210 213 215 219 222 230 235 231 228 233 240 243 245 249 255 260 262 263 261 261 267 267 265 264 268 270 273 278 282 284 286 289 289 286
185 199 202 201 202 230 223 244 243 239 195 190 195 215 218 216 213 216 221 224 228 236 241 245 247 250 251 252 254 259 256 259 264 264 264 267 269 267 267 267 270 274 278 283 285 287 289 288 287
193 205 204 203 204 210 214 217 242 219 221 208 211 216 216 236 234 231 231 233 234 239 246 250 253 256 260 260 259 260 263 263 265 267 266 265 268 268 271 274 275 278 282 284 286 286 288 288 287
198 205 212 204 211 211 211 226 226 215 232 230 232 230 230 240 247 245 246 247 249 249 248 246 246 250 255 261 265 266 267 265 265 267 268 267 271 276 278 281 280 281 281 282 283 284 286 285 288
201 210 221 213 203 213 225 236 235 233 232 237 239 238 241 242 242 247 248 249 250 251 252 253 253 255 259 261 261 261 263 264 266 268 272 273 275 275 275 276 276 277 281 282 282 284 284 284 285
202 208 215 218 219 228 234 247 238 223 226 229 233 229 229 237 243 245 245 248 250 250 250 253 259 262 262 261 264 266 266 265 267 268 268 270 272 274 275 275 275 276 278 280 281 282 282 282 278
207 213 211 230 220 228 233 265 252 235 230 225 228 226 223 229 232 236 243 245 246 250 255 258 259 260 262 265 266 267 267 268 267 268 269 268 267 269 271 273 275 278 279 280 281 280 282 282 283
191 191 203 219 219 264 228 244 266 249 237 229 226 229 233 234 239 242 244 247 250 254 258 259 260 261 262 263 265 267 266 265 264 265 267 268 269 269 270 272 274 274 273 275 277 279 279 280 281
204 211 196 215 256 260 236 226 268 249 250 243 234 233 234 237 237 239 243 244 252 257 261 262 263 264 264 264 263 263 263 264 266 267 267 268 270 271 272 272 273 272 272 270 271 274 274 274 275
212 220 161 191 199 233 205 235 239 260 253 252 240 234 235 239 241 241 245 250 253 256 260 261 262 262 262 262 262 260 259 259 259 260 260 262 265 267 269 270 272 274 273 273 275 277 281 283 284
205 212 187 197 196 217 194 241 253 265 265 265 262 236 234 235 239 242 247 253 259 263 263 262 261 258 256 255 256 257 257 259 260 263 266 268 270 272 273 275 275 274 277 278 280 281 282 283 283
206 213 219 164 251 341 231 259 264 264 271 264 260 248 244 237 236 242 249 257 261 257 252 251 252 253 254 254 256 258 260 262 265 267 268 270 270 271 272 272 273 274 274 276 276 277 278 279 281
207 210 211 219 188 243 246 257 254 293 291 271 247 244 244 242 233 239 248 252 248 243 243 246 249 251 254 256 258 262 265 268 269 271 271 272 272 273 273 273 273 273 273 273 274 276 277 278 280
210 212 215 219 223 203 245 245 258 308 289 255 258 242 232 234 235 240 245 244 240 240 243 247 251 254 257 260 263 266 270 273 275 275 274 274 275 275 274 273 272 270 271 272 275 277 278 280 282
228 228 214 214 214 223 243 255 280 297 310 256 243 245 231 232 232 236 236 238 242 248 254 259 262 263 263 264 266 268 270 272 273 273 273 273 273 273 273 272 270 269 271 275 278 282 282 284 290